Temp_Advection
nan nan nan nan nan nan nan nan nan nan nan nan nan nan nan nan nan nan nan nan nan nan nan nan nan nan nan nan nan nan nan nan nan nan nan nan nan nan nan nan nan nan nan nan nan nan nan nan nan nan nan nan
nan -0 -0 -0 -0 0 0 0 0 0 0 -0 0 -0 -0 0 0 0 -0 -0 -0 0 0 0 0 0 -0 0 0 0 0 0 0 0 -0 0 0 0 0 0 0 0 1 1 -0 -0 -0 -0 -0 0 -0 nan
nan -0 -0 -0 -0 -0 -0 0 0 0 0 0 0 -0 -0 0 0 0 0 -0 -0 0 0 0 0 -0 -0 0 0 0 0 0 0 0 0 -0 -0 0 0 0 0 0 1 1 0 -0 -0 -0 -0 0 0 nan
nan -0 -0 -0 -0 -0 -0 -0 -0 0 0 0 0 0 -0 -0 0 0 0 0 0 -0 -0 0 0 -0 -0 0 0 0 0 -0 0 0 0 0 -0 -0 -0 0 0 1 1 1 0 -0 0 -0 -0 0 0 nan
nan -0 -0 -0 -0 -0 -0 -0 -0 -0 -0 -0 0 -0 -0 -0 0 0 0 -0 0 0 -0 -0 0 -0 -0 0 0 0 0 -0 -0 0 0 0 -0 -0 0 0 0 0 0 1 0 0 0 0 -0 -0 0 nan
nan -0 -0 -0 -0 -0 -0 -0 -0 -1 -1 -0 -0 -0 -0 -0 -0 0 0 0 0 0 0 0 -0 0 0 -0 -0 0 0 0 0 -0 -0 0 0 -0 0 1 0 0 0 0 -0 0 1 0 -0 -0 0 nan
nan -0 -0 -0 -0 -0 0 0 0 -0 -0 -1 -1 -1 -1 -0 -0 -0 -0 0 0 -0 0 0 -0 -0 0 0 -0 -0 0 0 0 -0 -0 0 1 -0 0 1 0 0 1 -0 -1 -0 1 1 -0 -0 0 nan
nan -0 -0 -0 -0 0 0 0 0 0 0 0 -0 -0 -1 -1 -1 -0 -0 -0 0 -0 0 0 0 -0 0 0 -0 -0 0 0 0 -0 -0 1 1 0 0 0 0 0 0 -0 -1 -1 0 1 1 0 0 nan
nan -0 -0 -0 -0 -0 0 0 0 0 0 0 0 0 0 -0 -1 -1 -1 -0 -0 -0 0 -0 0 0 -0 -0 0 0 0 0 0 -0 0 0 0 0 0 0 0 0 0 -0 -0 -0 -0 0 1 1 0 nan
nan -1 -1 -1 -1 -0 -0 -0 0 0 0 0 0 0 0 0 0 -0 -1 -1 -1 -0 0 -0 -0 -0 -0 0 0 0 0 0 -0 -0 0 0 0 1 0 0 0 0 0 -0 0 0 -0 0 0 1 1 nan
nan -1 -2 -2 -2 -2 -1 -1 -0 -0 0 0 0 0 0 0 0 0 -0 -1 -1 -1 -0 -0 0 -0 -0 -0 0 0 0 -0 -0 0 0 0 0 1 1 1 0 0 0 0 0 0 0 -0 0 0 1 nan
nan -2 -2 -2 -2 -2 -2 -3 -2 -2 -1 -0 0 1 1 1 1 0 0 -0 -0 -1 -1 -1 -0 0 -0 -0 0 0 -0 -0 -0 -0 0 0 0 0 1 1 0 -0 -0 0 0 0 0 0 0 0 0 nan
nan -3 -3 -2 -2 -2 -3 -3 -4 -4 -3 -3 -2 -1 -0 1 1 0 0 -0 -1 -1 -0 -1 -1 -1 -0 0 0 0 0 -0 -0 -1 0 0 0 0 0 0 0 0 0 0 0 1 0 0 0 0 0 nan
nan -3 -3 -3 -3 -3 -3 -3 -4 -4 -5 -5 -4 -3 -2 -1 -0 0 -0 -0 -1 -1 -1 -0 -0 -1 -1 -0 0 0 0 0 -0 -0 -0 0 0 0 -0 0 0 0 1 0 0 0 0 0 0 0 0 nan
nan -2 -2 -2 -3 -3 -2 -2 -2 -3 -3 -4 -4 -5 -4 -3 -2 -1 -0 -0 -1 -1 -2 -1 -0 0 -0 -1 -0 0 0 0 0 0 0 -0 -0 -0 -0 -0 0 0 1 1 0 0 -0 0 0 0 0 nan
nan -1 -1 -2 -2 -2 -2 -2 -1 -1 -2 -2 -3 -3 -3 -3 -2 -2 -1 -1 -1 -1 -2 -2 -1 0 0 -0 -1 -0 0 0 0 0 0 0 -0 -1 -0 0 0 1 1 1 0 0 -0 -0 -0 0 0 nan
nan -1 -1 -1 -2 -2 -2 -2 -2 -2 -2 -2 -3 -3 -3 -3 -1 -1 -1 -2 -2 -2 -2 -2 -2 -1 1 1 -0 -1 -0 -0 0 0 0 -0 -0 -0 0 0 0 0 0 0 0 0 0 -0 0 0 0 nan
nan -1 -1 -1 -1 -1 -2 -2 -2 -2 -2 -2 -2 -3 -4 -4 -3 -1 -1 -2 -2 -2 -2 -2 -2 -1 -0 1 1 -0 -0 -1 -0 -0 0 0 0 0 0 0 -0 -0 0 1 1 1 0 0 0 0 -0 nan
nan -1 -1 -1 -1 -1 -1 -1 -2 -2 -2 -2 -2 -2 -2 -2 -3 -2 -2 -2 -2 -2 -2 -2 -2 -1 -1 0 1 1 -0 -0 -0 -1 -1 -0 0 0 0 0 -1 -1 0 1 0 1 1 0 0 0 -0 nan
nan -1 -1 -1 -1 -1 -1 -1 -1 -1 -2 -2 -1 -1 -1 -1 -1 -1 -2 -2 -2 -2 -2 -1 -2 -1 -1 -1 -0 0 0 -0 -0 -0 -1 -1 -0 -0 0 0 -1 -1 0 0 0 0 0 0 0 0 -0 nan
nan -1 -1 -1 -1 -1 -1 -1 -1 -1 -1 -1 -1 -1 -1 -0 0 -0 -1 -1 -1 -1 -1 -1 -1 -1 -1 -1 -1 -0 -0 -0 -0 -1 -1 -1 -1 -0 -0 0 -0 -0 0 -0 -0 -0 0 0 0 -0 -0 nan
nan -0 -0 -0 -1 -1 -1 -1 -1 -1 -1 -1 -1 -0 -0 -0 -0 -0 -0 -1 -1 -1 -1 -1 -1 -1 -1 -1 -2 -1 -1 -0 -0 -1 -1 -1 -1 -0 0 0 -0 -0 -0 -0 -0 -0 -0 0 0 0 0 nan
nan -0 -0 -0 -0 -1 -1 -1 -1 -1 -1 -1 -0 -0 -0 -0 -0 -0 -0 -0 -1 -1 -0 -0 -1 -1 -1 -1 -1 -2 -1 -1 -1 -1 -1 -1 -1 -1 -0 0 -0 -1 -1 -0 0 -0 0 0 1 1 1 nan
nan -0 -0 -0 -0 -0 -1 -1 -1 -1 -1 -1 -1 -0 -0 -0 -0 -0 -0 -0 -0 -1 -1 -0 -0 -0 -0 -0 -1 -1 -1 -1 -1 -1 -1 -1 -1 -1 -1 -0 0 -1 -1 -1 0 1 1 1 1 1 1 nan
nan -0 -0 -0 -0 -0 -1 -1 -1 -1 -1 -1 -1 -1 -0 -0 -0 -0 -0 -0 -0 -0 -1 -0 -0 -0 -0 0 -0 -1 -1 -1 -1 -2 -1 -1 -0 -1 -1 -1 -0 1 0 -0 0 0 0 0 0 1 1 nan
nan -1 -0 -0 -0 -0 -0 -1 -1 -1 -1 -1 -1 -1 -1 -0 -0 -0 -1 -1 -0 -0 -0 -1 -0 -0 -0 0 0 -0 -0 -1 -1 -1 -1 -1 -1 -0 -1 -2 -1 1 1 0 -1 -1 1 1 1 1 1 nan
nan -1 -0 -0 -0 -0 -0 -0 -1 -1 -1 -1 -1 -1 -1 -0 -0 -0 -1 -0 -0 -0 -0 -1 -0 -0 -0 -0 0 0 -0 -0 -0 -1 -1 -1 -1 -1 -1 -1 -1 0 0 -0 -1 0 1 1 1 2 -0 nan
nan -1 -1 -1 -0 -0 -0 -0 -1 -1 -1 -1 -1 -1 -1 -0 -0 -0 -1 -1 -1 -0 -0 -0 -0 -0 -0 -0 0 0 -0 -0 -0 -1 -1 -1 -1 -1 -1 -1 -1 -0 -0 -0 -0 0 0 0 1 -0 -3 nan
nan -2 -1 -1 -1 -0 -0 -0 -1 -1 -1 -1 -1 -1 -1 -1 -0 -0 -0 -0 -1 -1 -1 -0 -0 -0 -0 -0 -0 0 -0 -0 -0 -0 -1 -1 -1 -0 -1 -1 -1 -1 -0 -0 -0 -0 -0 0 -0 -2 -2 nan
nan -2 -2 -1 -1 -1 -1 -0 -1 -1 -1 -1 -1 -1 -1 -1 -1 -1 -0 -0 -1 -1 -1 -1 -0 -0 -0 -1 -0 -0 -0 -0 -0 -0 -0 -1 -1 -1 -0 -0 -1 -1 -1 -0 -0 -1 -0 -0 -1 -1 1 nan
nan nan nan nan nan nan nan nan nan nan nan nan nan nan nan nan nan nan nan nan nan nan nan nan nan nan nan nan nan nan nan nan nan nan nan nan nan nan nan nan nan nan nan nan nan nan nan nan nan nan nan nan
Wind_Speed
5 6 7 10 11 10 12 12 11 11 11 12 12 13 15 14 15 16 17 18 17 15 15 15 15 16 17 17 16 16 18 19 18 19 21 19 17 18 18 17 17 17 21 21 14 14 12 9 16 19 19 19
4 5 6 7 9 9 11 12 12 12 12 11 12 13 15 16 16 16 17 19 17 16 16 16 16 15 15 17 17 17 16 19 19 19 20 20 19 19 18 17 18 17 21 24 16 14 14 9 14 17 17 18
5 5 6 6 7 7 7 10 12 13 13 13 13 13 15 16 17 17 17 19 19 19 18 18 18 16 16 16 17 18 17 18 19 19 19 21 21 20 19 18 18 18 21 24 18 16 16 12 13 16 17 17
7 6 6 6 7 9 7 7 9 12 14 14 15 15 16 16 17 18 19 20 20 21 22 21 20 20 20 19 18 18 18 19 20 20 20 21 22 20 19 19 18 19 22 24 21 18 20 16 14 14 16 17
9 8 7 7 7 9 9 9 7 8 10 11 14 16 18 19 19 20 21 22 22 22 23 24 24 23 22 22 20 18 17 18 19 21 22 21 22 21 20 20 20 21 24 25 24 22 21 19 17 15 16 16
11 10 8 8 9 9 11 11 11 11 11 10 11 13 16 18 20 22 23 23 24 23 23 24 26 26 25 25 24 22 19 18 18 20 23 22 21 22 21 21 22 23 25 27 26 24 23 20 18 18 17 15
12 12 11 11 10 11 11 12 12 13 14 14 14 14 14 14 15 19 23 25 25 26 24 23 25 27 27 26 26 26 23 21 20 20 22 22 21 23 23 23 24 25 27 29 30 28 26 25 22 20 19 18
13 13 13 13 13 12 12 13 13 13 14 15 16 17 17 17 16 14 17 21 25 27 27 25 24 25 26 27 28 28 27 25 25 23 23 23 23 25 26 25 26 27 30 32 34 32 29 29 29 26 23 22
15 15 14 14 14 14 14 14 14 15 15 15 16 18 19 20 20 19 17 17 20 24 28 29 26 24 24 28 30 29 29 30 29 29 26 25 26 27 27 26 25 29 32 34 36 33 30 30 31 30 28 26
20 18 16 16 16 16 15 15 15 15 16 17 18 20 21 22 21 22 22 21 19 20 23 27 28 27 25 27 31 32 33 34 33 32 29 28 29 29 29 28 26 28 33 35 35 33 31 30 31 32 31 30
24 23 22 22 21 20 19 18 17 17 17 18 20 22 24 25 25 24 24 24 23 22 21 23 25 27 27 28 31 33 35 37 36 35 32 31 30 31 32 31 28 29 32 34 35 34 33 32 31 32 32 32
29 28 28 28 28 27 27 25 23 22 21 21 21 23 26 28 29 29 28 27 26 26 24 24 24 25 26 28 31 32 34 37 38 38 35 33 32 32 34 34 31 30 33 34 35 35 35 34 33 32 32 32
34 34 34 34 34 34 34 33 31 30 29 28 27 27 29 31 32 33 33 32 30 29 27 26 26 27 26 26 28 31 33 36 38 39 38 36 34 33 35 37 34 33 34 35 36 37 37 36 34 34 33 32
37 37 38 38 39 39 39 38 36 36 36 36 36 35 35 36 37 38 37 36 35 33 30 29 27 27 29 27 26 27 31 34 37 38 38 38 38 36 36 38 39 37 37 37 38 38 38 37 36 35 34 33
38 38 39 39 39 40 39 38 37 37 38 40 41 42 42 42 42 42 41 39 38 36 34 32 30 28 28 29 28 27 28 30 34 38 39 39 41 41 39 38 40 41 41 41 40 40 40 39 38 37 35 34
38 38 38 39 38 38 37 36 36 37 39 41 42 44 46 47 46 45 43 41 39 38 37 36 34 31 28 27 29 30 29 28 30 34 38 41 43 43 43 41 40 42 45 45 43 42 42 41 40 39 37 36
36 36 36 36 36 36 36 36 36 38 39 40 42 43 45 47 48 47 44 41 39 38 37 38 37 35 32 28 27 29 31 30 29 29 33 39 43 45 44 43 43 42 45 48 48 45 44 43 42 41 39 38
35 34 34 34 34 34 35 35 35 36 36 37 38 40 42 43 44 45 43 39 37 36 36 37 38 38 36 32 29 28 29 31 31 29 29 31 37 44 46 47 47 45 44 47 50 49 46 45 44 43 41 39
34 34 33 33 33 33 32 32 33 33 32 33 33 34 36 36 36 38 38 35 33 34 34 36 37 38 38 36 32 29 28 29 30 30 30 29 29 35 43 47 49 48 45 46 49 51 50 47 46 45 43 40
31 31 31 31 32 31 31 30 30 29 29 30 31 31 32 30 28 29 30 30 29 30 31 33 35 35 36 36 35 32 28 28 30 29 29 30 28 30 35 41 47 50 49 47 48 51 52 50 48 47 46 43
29 29 30 30 30 30 29 28 28 27 26 26 27 27 28 26 22 22 25 25 25 26 27 29 31 32 33 34 35 34 31 28 28 29 29 29 29 30 32 36 43 51 52 51 50 50 52 53 52 50 48 45
28 28 29 29 29 29 28 28 27 27 26 24 23 23 23 21 19 19 21 23 23 25 27 28 29 30 30 31 32 33 33 30 28 28 29 29 29 29 32 35 40 46 51 53 54 53 53 53 53 52 51 48
26 27 28 28 28 28 28 28 27 27 27 26 25 23 22 22 21 20 20 21 22 25 28 29 30 30 29 29 29 31 32 32 30 29 29 30 29 28 29 33 38 42 46 51 55 57 56 56 55 54 52 51
26 27 29 28 28 28 28 29 29 29 28 28 28 28 27 27 27 26 25 23 22 23 26 29 31 31 30 29 28 29 29 30 30 30 29 30 30 29 28 30 34 38 44 49 54 57 58 57 56 56 55 54
27 29 30 29 29 30 31 31 32 32 31 30 31 31 31 31 30 29 28 26 23 21 24 28 30 31 30 28 27 27 27 27 28 28 29 29 29 29 29 29 31 34 38 44 48 52 56 57 57 57 56 55
30 31 31 30 31 33 34 34 33 33 32 31 31 32 32 32 30 29 29 28 25 22 22 25 29 30 30 27 26 27 26 26 26 27 27 28 28 28 28 29 29 29 32 37 43 48 51 52 54 57 57 56
31 33 32 33 35 36 35 34 32 30 30 30 30 31 29 26 24 25 26 26 26 24 22 24 27 28 29 27 25 26 27 26 26 26 26 27 27 27 28 29 28 26 27 31 38 43 41 41 46 49 53 58
31 34 35 37 36 36 34 32 32 31 30 30 29 29 27 23 21 23 24 24 25 26 25 25 26 27 28 28 26 25 27 27 26 25 25 26 27 27 27 29 29 26 24 26 31 35 32 31 34 36 45 57
32 35 36 36 34 33 32 32 33 34 33 32 30 29 27 25 25 24 23 23 24 26 26 25 26 26 27 26 26 25 26 27 27 25 24 25 26 27 27 27 28 26 24 24 27 33 32 26 23 30 41 47
33 35 34 33 31 29 30 32 33 33 35 35 32 29 27 27 27 26 24 23 22 22 22 23 24 25 25 25 25 25 25 26 26 26 25 24 24 27 28 27 28 28 25 23 24 31 37 32 25 29 35 33
35 35 33 31 30 29 29 31 32 34 36 35 33 30 29 29 29 28 27 26 22 18 17 20 22 24 24 24 25 25 25 26 26 26 26 25 23 24 27 27 28 28 26 24 23 26 34 38 35 30 28 28
Wind_Direction
266 266 257 244 242 238 237 238 235 243 248 247 250 250 254 256 258 262 262 257 251 251 249 242 239 242 241 237 240 237 233 235 234 242 246 235 226 234 233 227 228 232 241 242 245 268 286 274 231 217 205 196
332 315 296 270 257 249 241 237 235 242 247 249 248 246 249 250 250 257 264 265 259 255 252 247 243 242 245 240 238 238 235 235 234 238 245 241 231 230 230 223 228 233 238 243 243 256 270 261 233 224 217 207
6 351 339 317 297 289 264 243 237 241 248 248 246 247 250 253 252 249 255 263 263 258 254 251 247 246 250 248 241 238 237 235 233 238 245 248 241 230 228 224 228 234 236 242 238 244 260 256 234 224 219 214
21 13 2 351 337 333 319 284 256 248 254 251 247 250 250 252 252 250 249 253 258 259 258 253 250 252 255 253 246 239 238 236 232 234 240 248 248 232 227 228 228 232 235 241 239 246 257 252 240 226 217 212
34 28 11 3 359 357 352 340 318 286 279 266 257 260 256 254 252 251 251 248 249 253 256 255 250 250 254 255 250 243 242 242 237 234 233 240 248 237 227 230 232 234 241 247 245 249 252 245 246 240 222 211
40 35 26 17 11 9 9 2 354 341 330 310 290 280 268 262 256 252 251 250 249 248 250 255 255 250 250 251 251 250 247 247 246 237 228 232 246 244 233 231 232 235 243 248 247 248 248 247 252 249 234 223
39 35 29 23 17 13 10 7 4 360 354 344 333 319 301 287 271 256 250 251 252 251 250 253 257 255 251 249 250 253 251 248 249 241 227 227 243 249 243 233 227 234 241 243 246 247 248 251 257 253 244 239
32 30 24 20 16 12 7 5 3 2 1 357 352 344 331 317 303 282 260 255 255 254 254 253 255 256 254 249 248 252 253 251 249 247 235 227 238 248 249 240 225 229 238 241 244 246 247 252 256 255 253 251
14 14 12 11 9 6 2 0 359 357 356 354 353 352 349 337 322 310 295 278 265 260 259 256 256 257 254 246 245 249 253 253 251 251 244 231 233 241 248 249 234 227 233 239 243 245 247 251 255 255 256 256
1 360 358 359 357 354 351 349 350 348 347 347 346 345 345 345 338 327 316 305 290 276 268 263 260 260 257 249 245 246 250 254 254 253 249 238 233 235 241 249 246 236 233 236 243 246 247 250 255 256 257 258
356 353 351 351 350 347 343 339 337 334 334 335 336 337 336 337 338 336 331 322 310 296 284 274 268 264 261 256 251 247 248 252 255 255 251 244 238 234 235 242 248 246 240 238 242 246 248 250 253 255 257 258
352 350 347 345 345 344 342 338 334 329 325 324 322 324 326 327 328 329 329 327 321 310 298 286 278 272 268 263 257 251 247 246 250 254 253 247 244 238 233 234 241 246 245 243 244 247 248 250 252 254 256 257
349 346 344 341 341 340 341 339 336 332 327 323 319 316 316 317 320 322 322 322 321 316 307 297 285 278 275 271 264 257 250 244 242 248 252 250 247 243 235 232 234 240 244 244 246 248 249 250 252 254 256 257
347 344 342 340 339 338 338 337 335 333 331 327 323 319 316 314 315 317 318 317 317 314 308 302 294 284 276 273 271 265 257 248 241 240 244 249 250 247 240 234 233 235 239 242 245 247 250 251 252 254 256 257
344 342 340 338 337 336 336 335 333 331 330 328 326 323 319 315 314 314 314 313 312 310 306 301 295 289 281 273 270 269 265 257 248 241 238 241 245 247 247 242 236 235 236 239 243 245 248 250 251 253 255 256
341 339 338 336 335 334 332 331 329 328 326 325 323 322 319 316 314 312 311 310 308 305 303 299 293 288 285 277 268 265 266 264 257 248 241 238 239 241 245 246 242 238 237 238 240 243 245 248 250 251 253 254
340 338 335 334 332 330 329 327 325 323 322 320 318 316 314 312 310 309 308 306 304 301 297 295 291 285 281 278 272 264 261 262 261 256 248 242 240 238 238 242 244 241 239 238 238 241 243 244 247 249 250 252
338 337 334 332 329 327 325 322 320 319 316 315 313 311 310 308 306 305 304 302 300 296 292 289 286 283 278 274 272 267 262 259 258 258 256 249 246 243 238 237 240 241 240 239 238 239 241 242 244 247 248 250
336 335 334 331 327 324 320 317 315 314 311 308 307 306 305 305 304 301 300 299 295 290 286 283 280 278 276 272 269 268 265 261 257 257 257 254 252 251 247 240 236 238 241 241 239 239 239 241 242 244 246 248
333 332 331 329 325 322 317 313 310 308 305 302 301 300 299 298 300 301 298 295 290 284 280 278 277 275 274 272 270 268 265 262 259 258 255 253 252 253 254 250 241 236 239 241 241 240 239 241 242 243 245 245
329 329 329 327 324 321 318 314 307 301 298 298 297 296 294 291 292 295 293 289 286 284 281 279 278 276 275 274 273 270 267 263 260 259 257 253 251 250 252 256 250 240 237 238 239 240 239 240 241 242 244 244
325 326 326 325 324 322 321 320 312 302 295 293 293 293 292 289 288 287 287 285 283 285 287 287 284 282 281 280 278 275 271 267 263 262 261 256 252 251 250 254 254 246 241 239 237 238 239 239 240 242 243 244
319 322 322 322 322 320 320 320 317 310 301 294 290 290 290 289 288 285 285 286 284 283 287 290 290 287 286 287 285 282 278 272 267 263 264 262 257 255 252 251 253 251 248 245 239 237 237 238 239 241 242 243
315 317 319 318 318 319 318 316 314 312 307 300 293 289 289 290 290 287 284 285 286 283 284 287 289 289 289 291 291 289 285 280 275 268 264 264 262 261 256 250 249 248 248 246 243 238 236 236 236 239 240 242
315 314 316 316 317 317 316 314 313 311 309 305 298 293 290 289 290 289 284 281 282 280 278 281 284 286 288 291 293 293 292 287 282 275 268 266 266 266 263 255 248 245 245 244 240 236 236 234 234 236 237 239
315 311 312 313 315 315 313 312 311 310 310 308 303 299 294 290 288 286 282 278 277 276 274 275 278 282 285 287 288 291 294 292 287 281 274 270 268 268 268 262 252 246 244 242 238 235 234 233 231 233 235 236
315 309 309 310 312 313 311 309 308 308 309 311 308 303 298 291 284 281 277 274 273 272 271 271 274 280 283 283 283 286 290 293 291 286 278 273 271 271 271 266 258 250 244 243 241 236 232 230 228 230 232 234
317 310 308 308 308 308 306 305 306 308 309 313 311 304 298 289 282 280 278 275 271 269 270 270 273 279 282 280 278 280 285 288 290 289 283 275 271 273 275 270 265 257 247 242 240 234 228 226 225 226 230 232
320 311 307 306 305 304 305 307 309 311 313 316 312 302 296 290 285 285 284 281 278 275 275 275 275 278 280 277 274 275 279 282 285 288 286 279 272 272 275 275 272 267 255 244 238 234 229 224 221 224 229 231
321 314 309 307 304 304 307 310 311 312 314 315 311 301 294 291 290 289 286 284 284 282 280 280 279 279 278 274 271 270 274 278 281 282 285 284 278 272 272 275 275 272 265 253 243 236 231 229 228 227 227 225
324 322 319 314 309 307 308 308 307 309 311 311 307 299 293 291 291 289 285 282 282 282 284 283 281 280 279 275 270 267 268 271 275 278 281 283 282 275 271 271 272 271 270 264 254 242 234 232 232 232 228 222
Height
1509 1510 1509 1509 1509 1510 1511 1511 1511 1511 1511 1512 1512 1513 1514 1514 1514 1514 1515 1515 1515 1516 1516 1517 1518 1518 1519 1520 1521 1522 1522 1522 1523 1523 1523 1523 1524 1524 1524 1524 1524 1524 1521 1519 1523 1525 1525 1525 1526 1526 1527 1528
1510 1510 1509 1509 1508 1509 1509 1510 1510 1510 1510 1510 1510 1510 1511 1511 1512 1512 1514 1514 1514 1514 1515 1515 1516 1517 1517 1518 1519 1520 1521 1521 1521 1522 1522 1522 1522 1523 1523 1524 1524 1524 1521 1519 1522 1524 1525 1526 1526 1527 1527 1528
1510 1510 1509 1509 1508 1508 1508 1508 1509 1509 1509 1509 1509 1509 1509 1509 1509 1510 1511 1512 1513 1513 1513 1514 1515 1515 1516 1517 1517 1518 1519 1520 1520 1520 1521 1521 1521 1522 1522 1523 1523 1523 1521 1519 1521 1524 1525 1526 1526 1527 1527 1528
1509 1509 1509 1508 1508 1508 1507 1507 1507 1507 1507 1507 1507 1507 1507 1508 1508 1508 1509 1510 1511 1512 1512 1513 1513 1514 1514 1515 1515 1516 1517 1518 1518 1518 1520 1520 1520 1520 1521 1521 1522 1522 1520 1518 1520 1523 1524 1525 1526 1527 1527 1528
1508 1508 1508 1508 1508 1507 1507 1506 1506 1506 1505 1505 1506 1506 1506 1506 1507 1507 1507 1508 1508 1509 1511 1511 1512 1512 1513 1513 1514 1514 1515 1516 1517 1517 1517 1518 1519 1519 1519 1520 1521 1520 1519 1517 1519 1521 1522 1524 1525 1526 1527 1528
1508 1508 1508 1507 1507 1507 1506 1506 1505 1504 1504 1504 1505 1505 1505 1505 1505 1505 1505 1506 1506 1507 1508 1509 1510 1510 1511 1511 1512 1513 1513 1514 1514 1515 1516 1516 1518 1517 1517 1518 1519 1519 1518 1516 1516 1520 1521 1522 1524 1525 1527 1527
1508 1508 1508 1507 1507 1506 1506 1505 1504 1504 1504 1504 1504 1504 1504 1504 1504 1504 1504 1504 1504 1504 1505 1506 1507 1508 1509 1509 1510 1511 1512 1512 1512 1514 1514 1515 1516 1516 1516 1517 1517 1517 1516 1514 1514 1517 1520 1521 1522 1524 1525 1527
1508 1508 1508 1507 1507 1506 1505 1505 1504 1504 1504 1504 1504 1503 1503 1502 1502 1503 1503 1503 1503 1503 1503 1503 1504 1505 1506 1507 1507 1509 1509 1510 1510 1511 1513 1513 1514 1514 1514 1514 1515 1515 1514 1513 1512 1515 1518 1519 1520 1522 1524 1525
1508 1508 1507 1507 1506 1506 1505 1505 1504 1504 1504 1503 1503 1503 1502 1502 1501 1501 1501 1502 1502 1502 1501 1501 1502 1502 1503 1504 1505 1506 1507 1508 1508 1509 1510 1511 1511 1512 1512 1512 1513 1513 1512 1512 1511 1514 1517 1518 1519 1520 1521 1523
1507 1507 1506 1506 1505 1505 1505 1504 1504 1504 1503 1502 1502 1501 1501 1500 1500 1500 1500 1500 1501 1501 1500 1500 1500 1500 1501 1501 1501 1503 1504 1505 1506 1507 1508 1508 1509 1510 1510 1510 1511 1511 1511 1510 1511 1513 1515 1516 1517 1518 1519 1520
1506 1505 1505 1504 1504 1504 1503 1503 1503 1503 1503 1502 1501 1500 1499 1499 1499 1499 1499 1499 1499 1499 1499 1499 1498 1498 1498 1498 1499 1500 1501 1502 1503 1504 1505 1506 1506 1507 1508 1508 1509 1509 1509 1509 1510 1511 1512 1514 1515 1516 1517 1518
1505 1504 1503 1503 1503 1502 1502 1501 1501 1501 1501 1501 1501 1500 1499 1498 1497 1497 1497 1497 1497 1497 1497 1497 1497 1496 1496 1496 1497 1497 1498 1499 1500 1501 1502 1503 1503 1504 1505 1505 1506 1506 1506 1507 1507 1509 1510 1512 1513 1515 1516 1517
1503 1502 1502 1501 1500 1500 1500 1499 1499 1499 1499 1499 1499 1498 1498 1497 1496 1495 1495 1495 1495 1495 1495 1495 1495 1494 1494 1494 1494 1494 1495 1495 1496 1497 1498 1499 1500 1501 1502 1502 1503 1504 1504 1504 1505 1506 1507 1509 1510 1512 1513 1514
1502 1501 1500 1499 1498 1498 1497 1497 1496 1496 1495 1495 1495 1495 1495 1495 1494 1494 1493 1493 1492 1492 1492 1492 1492 1491 1491 1491 1491 1491 1491 1492 1493 1493 1494 1495 1496 1497 1498 1499 1500 1500 1501 1501 1502 1503 1504 1506 1508 1509 1511 1511
1500 1499 1498 1497 1497 1496 1495 1494 1494 1493 1492 1491 1491 1491 1491 1491 1492 1492 1492 1491 1490 1490 1489 1489 1489 1488 1488 1488 1488 1488 1488 1488 1489 1489 1490 1491 1492 1493 1494 1495 1496 1497 1497 1498 1498 1500 1501 1503 1504 1506 1507 1508
1499 1497 1496 1495 1495 1494 1493 1492 1491 1490 1489 1488 1488 1487 1487 1487 1487 1488 1488 1488 1488 1488 1487 1486 1486 1485 1485 1484 1485 1485 1485 1485 1485 1486 1486 1487 1488 1489 1489 1490 1492 1493 1494 1494 1495 1496 1497 1499 1500 1502 1504 1505
1498 1496 1495 1494 1493 1492 1491 1490 1488 1487 1487 1486 1485 1484 1484 1484 1484 1484 1484 1484 1485 1485 1484 1483 1482 1482 1482 1481 1481 1481 1481 1481 1481 1482 1482 1483 1485 1485 1486 1486 1488 1489 1490 1491 1491 1492 1494 1495 1497 1499 1500 1502
1496 1495 1493 1492 1491 1490 1488 1487 1486 1485 1484 1483 1482 1481 1480 1480 1480 1480 1480 1480 1480 1481 1481 1480 1479 1478 1478 1478 1477 1477 1477 1477 1477 1478 1478 1480 1480 1481 1482 1482 1483 1484 1485 1487 1488 1489 1490 1491 1493 1495 1497 1499
1493 1492 1491 1489 1488 1487 1486 1485 1484 1482 1481 1480 1479 1478 1477 1476 1477 1477 1477 1476 1476 1476 1476 1476 1475 1475 1474 1474 1473 1473 1473 1473 1473 1474 1474 1476 1476 1476 1477 1478 1479 1480 1481 1483 1484 1485 1486 1488 1490 1492 1493 1495
1491 1490 1488 1487 1486 1485 1484 1483 1481 1480 1478 1477 1475 1474 1473 1473 1473 1474 1474 1473 1472 1472 1472 1471 1471 1470 1470 1470 1470 1469 1469 1469 1469 1469 1469 1471 1472 1472 1473 1474 1475 1476 1477 1479 1480 1481 1483 1484 1486 1488 1489 1492
1489 1487 1485 1484 1484 1483 1482 1481 1479 1477 1475 1474 1472 1471 1470 1470 1470 1471 1471 1470 1470 1469 1468 1467 1466 1466 1466 1466 1465 1465 1466 1466 1466 1466 1465 1466 1467 1468 1468 1469 1471 1472 1474 1475 1476 1477 1479 1480 1481 1483 1485 1488
1486 1484 1483 1482 1481 1480 1480 1479 1477 1475 1473 1471 1470 1469 1468 1468 1467 1467 1467 1467 1467 1466 1465 1464 1463 1463 1462 1462 1462 1461 1462 1462 1462 1463 1462 1462 1462 1463 1463 1464 1466 1468 1470 1471 1472 1473 1474 1476 1477 1479 1481 1484
1485 1483 1481 1480 1479 1478 1477 1476 1475 1473 1470 1468 1467 1466 1466 1465 1465 1464 1464 1464 1463 1463 1462 1461 1460 1460 1459 1459 1459 1458 1458 1458 1459 1459 1459 1459 1458 1458 1459 1459 1461 1463 1466 1467 1468 1469 1470 1471 1473 1475 1477 1479
1483 1480 1478 1477 1476 1475 1474 1473 1471 1469 1467 1465 1464 1463 1463 1462 1462 1461 1461 1460 1460 1460 1459 1458 1457 1457 1457 1456 1455 1455 1454 1454 1455 1455 1455 1455 1455 1454 1455 1455 1456 1459 1461 1462 1463 1464 1466 1467 1469 1471 1473 1475
1480 1478 1475 1473 1472 1472 1471 1469 1468 1465 1464 1462 1461 1460 1459 1459 1458 1458 1457 1457 1456 1456 1456 1455 1454 1453 1453 1453 1453 1452 1451 1451 1451 1451 1452 1452 1451 1451 1451 1451 1452 1454 1457 1458 1458 1459 1460 1462 1464 1465 1467 1470
1478 1476 1473 1471 1469 1468 1467 1465 1463 1461 1459 1458 1457 1457 1456 1455 1455 1454 1453 1453 1453 1452 1452 1451 1451 1450 1450 1450 1450 1449 1448 1448 1448 1448 1448 1448 1448 1447 1447 1447 1448 1450 1452 1453 1453 1454 1455 1456 1458 1460 1462 1464
1475 1473 1471 1468 1466 1465 1462 1461 1459 1457 1456 1455 1453 1452 1452 1451 1451 1450 1449 1449 1449 1448 1448 1447 1447 1447 1447 1447 1447 1446 1445 1445 1445 1445 1445 1445 1445 1444 1443 1443 1444 1446 1447 1448 1450 1451 1451 1451 1452 1454 1456 1458
1472 1470 1468 1466 1463 1461 1459 1457 1455 1453 1452 1451 1450 1449 1448 1447 1446 1446 1445 1445 1444 1444 1444 1444 1443 1443 1443 1443 1443 1443 1442 1442 1442 1441 1442 1442 1442 1441 1440 1439 1440 1441 1443 1444 1446 1447 1447 1448 1448 1448 1449 1451
1469 1467 1464 1462 1459 1457 1455 1452 1451 1449 1447 1447 1446 1445 1444 1443 1442 1442 1441 1440 1440 1440 1440 1440 1440 1439 1439 1439 1439 1439 1439 1438 1438 1439 1438 1439 1439 1439 1438 1437 1436 1437 1439 1440 1441 1442 1443 1444 1443 1441 1443 1446
1466 1463 1460 1458 1455 1453 1451 1448 1447 1445 1443 1442 1441 1440 1439 1439 1438 1438 1437 1436 1436 1436 1436 1436 1436 1435 1435 1434 1435 1435 1435 1435 1435 1435 1435 1435 1435 1435 1435 1435 1433 1433 1435 1436 1437 1438 1439 1440 1439 1438 1440 1443
1463 1460 1457 1455 1452 1450 1448 1445 1443 1442 1440 1439 1437 1436 1435 1434 1434 1434 1433 1433 1432 1432 1432 1432 1431 1431 1431 1430 1430 1431 1431 1431 1431 1431 1432 1432 1432 1432 1432 1432 1431 1430 1431 1432 1432 1433 1435 1436 1437 1437 1437 1439